Regional Weather Roundup
Issued by NWS Upton, NY

Current Version | Previous Version | Graphics & Text | Print | Product List | Glossary Off
Versions: 1 2 3 4 5 6 7 8 9 10 11 12 13 14 15 16 17 18 19 20 21 22 23 24 25 26 27 28 29 30 31 32 33 34 35 36 37 38 39 40 41 42 43 44 45 46 47 48 49 50
000 ASUS41 KOKX 250104 RWROKX REGIONAL WEATHER ROUNDUP NATIONAL WEATHER SERVICE NEW YORK NY 900 PM EDT SUN JUL 24 2016 NOTE: "FAIR" INDICATES FEW OR NO CLOUDS BELOW 12,000 FEET WITH NO SIGNIFICANT WEATHER AND/OR OBSTRUCTIONS TO VISIBILITY. NYZ071-072-176-178-NJZ106-104-250200- NEW YORK CITY METRO AREA CITY SKY/WX TMP DP RH WIND PRES REMARKS Central Park CLOUDY 83 66 56 VRB6 29.98R LaGuardia APRT CLOUDY 87 68 52 SW10 29.94R HX 90 Kennedy INTL MOCLDY 78 71 79 S13 29.97R Newark/Liberty MOCLDY 85 66 53 S13 29.94R BRNX BOT. GARD N/A 81 66 61 E2 29.95F Wall St Helipt CLOUDY 84 66 54 W5 29.96R Teterboro CLOUDY 84 66 54 S7 29.93R $$ NYZ177-179-078>081-250200- LONG ISLAND NEW YORK CITY SKY/WX TMP DP RH WIND PRES REMARKS FARMINGDALE CLOUDY 78 69 73 S8 29.97S ISLIP CLOUDY 77 71 82 S6 29.98R SHIRLEY PTCLDY 76 70 82 S6 29.99R RIVERHEAD NOT AVBL WESTHAMPTON PTCLDY 74 68 81 SW7 30.00R SOUTHAMPTON N/A 75 70 83 SW8 29.94S BRIDGEHAMPTON N/A 73 66 78 S2 29.97R EAST HAMPTON FAIR 74 66 75 SW7 29.97S MONTAUK POINT N/A 75 67 76 SW6 29.99R $$ NYZ052-065-067-250200- HUDSON VALLEY CITY SKY/WX TMP DP RH WIND PRES REMARKS WHITE PLAINS MOCLDY 76 65 68 E3 29.97R NEWBURGH MOCLDY 82 61 47 VRB5 29.97R MONTGOMERY CLOUDY 77 66 68 CALM 29.95R POUGHKEEPSIE MOCLDY 78 66 66 CALM 29.93R ALBANY MOCLDY 80 58 46 CALM 29.95S $$ NJZ001-105-106-008-010-013-015-019>022-104-250200- NEW JERSEY CITY SKY/WX TMP DP RH WIND PRES REMARKS NEWARK/LIBERTY MOCLDY 85 66 53 S13 29.94R TETERBORO CLOUDY 84 66 54 S7 29.93R CALDWELL MOCLDY 85 65 51 CALM 29.94R MORRISTOWN CLOUDY 81 68 65 CALM 29.95R SOMERVILLE PTCLDY 77 68 73 CALM 29.93R SUSSEX PTCLDY 77 67 71 CALM 29.97R ANDOVER N/A 75 69 81 CALM 29.97R TRENTON PTCLDY 83 64 52 SW5 29.95R MILLVILLE CLEAR 76 68 76 CALM 29.98S ATLANTIC CITY CLEAR 79 66 64 S6 29.99R WRIGHTSTOWN PTCLDY 79 70 73 S6 29.95R TOMS RIVER CLEAR 78 68 71 S3 29.98S BELMAR PTCLDY 82 66 58 S7 29.99R $$ PAZ047>061-062-071-250200- EASTERN PENNSYLVANIA CITY SKY/WX TMP DP RH WIND PRES REMARKS PHILADELPHIA MOCLDY 84 65 52 S8 29.98R ALLENTOWN MOCLDY 83 65 54 SW6 29.96R SCRANTON CLOUDY 84 59 42 CALM 29.97R $$ CTZ002-004>006-009-010-012-RIZ004-006-007-MAZ004-011-015-250200- SOUTHERN NEW ENGLAND IN CT CITY SKY/WX TMP DP RH WIND PRES REMARKS BRADLEY INTL PTCLDY 78 58 49 CALM 29.95R HARTFORD CLOUDY 81 63 54 S7 29.94S DANBURY MOCLDY 79 64 60 VRB3 29.98R WTRBRY/OXFORD N/A 77 61 57 S5 30.01S BRIDGEPORT MOCLDY 80 67 64 S8 29.96S MERIDEN MOCLDY 80 64 58 CALM 29.97R NEW HAVEN MOCLDY 77 66 68 SW6 29.97R CHESTER FAIR 77 66 69 SW6 29.99R GROTON PTCLDY 76 66 71 W6 29.97R WILLIMANTIC NOT AVBL IN RI CITY SKY/WX TMP DP RH WIND PRES REMARKS PROVIDENCE MOCLDY 79 64 60 SW8 29.96R BLOCK ISLAND PTCLDY 71 67 87 SW10 29.99R WESTERLY MOCLDY 74 64 71 W3 29.98R IN MA CITY SKY/WX TMP DP RH WIND PRES REMARKS BOSTON PTCLDY 72 65 78 N6 29.96R WORCESTER CLEAR 73 53 49 NW7 30.01R WESTFIELD MOCLDY 75 58 55 N3 29.97R PROVINCETOWN PTCLDY 72 65 78 S8 29.96R NANTUCKET CLEAR 68 66 93 S6 29.99R $$ ANZ330-335-338-340-345-350-353-355-250200- COASTAL MARINE OBSERVATIONS STATION/POSITION TIME SKY/WX TEMP WIND PRES VSBY WAVE AIR SEA DIR/SP/G HT/PER (UTC) (F) (DEG/KT/KT) (MB) (MI) (FT/S) NY HARB ENTRANCE 2350 76 73 190/ 14/ 16 1014.1 3/ 4 20S FIRE ISLAND 2350 76 74 190/ 10/ 12 1014.5 3/ 6 GREAT SOUTH BAY 0030 76 81 210/ 6/ 12 N/A 23 SSW MONTAUK P 2350 74 72 220/ 8/ 10 1015.3 2/ 6 15 E BARNEGAT LI 0022 77 N/A 2/ 6 HUDSON CANYON 2350 77 78 1015.5 3/ 6 KINGS POINT 0000 79 74 N/A EXECUTION ROCKS 0000 80 160/ 6/ 8 N/A CENTRAL LI SOUND 0000 78 75 220/ 14/ 16 N/A 1/ 2 EASTERN LI SOUND 0000 72 67 240/ 10/ 12 N/A ROBBINS REEF 0000 84 N/A $$ >>>>>>>>>>>>>>>>>>>>>>>>>>>> KEY <<<<<<<<<<<<<<<<<<<<<<<<<<< > < > SKY/WX - SKY CONDITION/PRESENT WEATHER < > TMP - TEMPERATURE IN FAHRENHEIT < > DP - DEWPOINT IN FAHRENHEIT < > RH - RELATIVE HUMIDITY IN PERCENT < > WIND - DIRECTION AND SPEED IN MPH < > PRES - MEAN SEA LEVEL PRESSURE IN INCHES OF HG < > WCI - WIND CHILL INDEX < > VSB - VISIBILITY IN MILES < > HX - HEAT INDEX < > TC - TEMPERATURE IN CELSIUS < > VRB - VARIABLE WIND DIRECTION < > < >>>>>>>>>>>>>>>>>>>>>>>>>>>> KEY <<<<<<<<<<<<<<<<<<<<<<<<<<<

USA.gov is the U.S. government's official web portal to all federal, state and local government web resources and services.